Date String (YYYY-MM-DD hh:mm:ss) UTC,Instrument flags,Ambient pressure (hPa),Sample flow (lpm),Bypass flow (lpm),Sample temperature (°C),Ambient temperature (°C),ASC tube jacket temperature (°C),LED temperature (°C),Box temperature (°C),Sample RH (%),Span deviation,Mass concentration (μg/m³),Mass concentration (μg/m³),Mass concentration (μg/m³)
DateTimeUTC,F1_M11,P_M11,Q1_M11,Q2_M11,T1_M11,T2_M11,T3_M11,T4_M11,T5_M11,U1_M11,ZSPAN_M11,X0_M11,X2_M11,X1_M11
2022-03-25 03:00:00,,0826.1,5.00,0.00,28.9,28.0,00.0,37.9,30.6,09.1,0000.0,0008.25,0003.47,0001.45
2022-03-25 03:01:00,,0826.1,5.02,0.00,28.8,28.0,00.0,37.9,30.5,09.1,0000.0,0008.29,0003.48,0001.45
2022-03-25 03:02:00,,0826.1,4.98,0.00,28.8,27.9,00.0,37.9,30.5,09.2,0000.0,0008.16,0003.41,0001.48
2022-03-25 03:03:00,,0826.1,4.98,0.00,28.8,27.9,00.0,37.9,30.5,09.2,0000.0,0008.30,0003.43,0001.50
2022-03-25 03:04:00,,0826.1,5.00,0.00,28.7,27.8,00.0,37.9,30.4,09.2,0000.0,0008.52,0003.48,0001.53
2022-03-25 03:05:00,,0826.1,5.00,0.00,28.7,27.8,00.0,37.9,30.4,09.2,0000.0,0009.20,0003.52,0001.55
2022-03-25 03:06:00,,0826.1,5.00,0.00,28.7,27.8,00.0,37.8,30.4,09.3,0000.0,0009.26,0003.55,0001.55
2022-03-25 03:07:00,,0826.1,5.02,0.00,28.7,27.7,00.0,37.8,30.4,09.3,0000.0,0009.31,0003.56,0001.57
2022-03-25 03:08:00,,0826.2,4.99,0.00,28.6,27.7,00.0,37.8,30.3,09.3,0000.0,0009.23,0003.54,0001.58
2022-03-25 03:09:00,,0826.1,4.99,0.00,28.6,27.8,00.0,37.8,30.3,09.3,0000.0,0009.08,0003.51,0001.57
2022-03-25 03:10:00,,0826.1,4.99,0.00,28.6,27.8,00.0,37.8,30.3,09.3,0000.0,0009.05,0003.56,0001.55
2022-03-25 03:11:00,,0826.1,5.01,0.00,28.6,27.8,00.0,37.7,30.3,09.4,0000.0,0008.90,0003.51,0001.53
2022-03-25 03:12:00,,0826.1,4.99,0.00,28.6,27.8,00.0,37.7,30.3,09.4,0000.0,0009.20,0003.53,0001.52
2022-03-25 03:13:00,,0826.1,5.00,0.00,28.6,27.8,00.0,37.7,30.3,09.5,0000.0,0009.60,0003.56,0001.51
2022-03-25 03:14:00,,0826.1,5.00,0.00,28.6,27.8,00.0,37.7,30.3,09.5,0000.0,0009.66,0003.52,0001.49
2022-03-25 03:15:00,,0826.1,5.00,0.00,28.6,27.8,00.0,37.7,30.4,09.5,0000.0,0009.55,0003.47,0001.47
2022-03-25 03:16:00,,0826.1,5.02,0.00,28.6,27.8,00.0,37.7,30.4,09.4,0000.0,0009.35,0003.44,0001.45
2022-03-25 03:17:00,,0826.1,5.00,0.00,28.7,27.9,00.0,37.7,30.4,09.4,0000.0,0009.72,0003.43,0001.43
2022-03-25 03:18:00,,0826.2,4.99,0.00,28.7,27.9,00.0,37.7,30.5,09.4,0000.0,0009.84,0003.45,0001.41
2022-03-25 03:19:00,,0826.1,5.00,0.00,28.7,27.9,00.0,37.7,30.5,09.4,0000.0,0009.82,0003.45,0001.39
2022-03-25 03:20:00,,0826.1,5.00,0.00,28.7,27.9,00.0,37.7,30.5,09.4,0000.0,0009.81,0003.45,0001.38
2022-03-25 03:21:00,,0826.1,5.01,0.00,28.7,27.9,00.0,37.7,30.5,09.4,0000.0,0009.62,0003.41,0001.38
2022-03-25 03:22:00,,0826.1,5.00,0.00,28.7,27.9,00.0,37.7,30.4,09.4,0000.0,0009.62,0003.42,0001.40
2022-03-25 03:23:00,,0826.1,4.99,0.00,28.7,27.9,00.0,37.7,30.4,09.6,0000.0,0009.42,0003.43,0001.40
2022-03-25 03:24:00,,0826.0,5.01,0.00,28.6,27.8,00.0,37.7,30.4,09.6,0000.0,0009.08,0003.44,0001.38
2022-03-25 03:25:00,,0826.1,4.99,0.00,28.6,27.8,00.0,37.7,30.3,09.6,0000.0,0008.72,0003.42,0001.38
2022-03-25 03:26:00,,0826.1,5.01,0.00,28.6,27.7,00.0,37.7,30.3,09.7,0000.0,0008.59,0003.40,0001.39
2022-03-25 03:27:00,,0826.1,5.00,0.00,28.6,27.7,00.0,37.6,30.3,09.6,0000.0,0008.16,0003.37,0001.38
2022-03-25 03:28:00,,0826.1,4.99,0.00,28.6,27.7,00.0,37.6,30.3,09.6,0000.0,0007.77,0003.38,0001.38
2022-03-25 03:29:00,,0826.2,5.01,0.00,28.6,27.7,00.0,37.6,30.3,09.6,0000.0,0007.82,0003.39,0001.38
2022-03-25 03:30:00,,0826.1,5.01,0.00,28.6,27.8,00.0,37.6,30.3,09.7,0000.0,0007.92,0003.40,0001.38
2022-03-25 03:31:00,,0826.1,5.00,0.00,28.6,27.8,00.0,37.6,30.3,09.7,0000.0,0007.89,0003.37,0001.37
2022-03-25 03:32:00,,0826.1,5.00,0.00,28.6,27.8,00.0,37.6,30.3,09.7,0000.0,0007.97,0003.35,0001.36
2022-03-25 03:33:00,,0826.1,4.99,0.00,28.6,27.8,00.0,37.6,30.3,09.7,0000.0,0008.05,0003.34,0001.35
2022-03-25 03:34:00,,0826.2,5.01,0.00,28.6,27.7,00.0,37.6,30.2,09.7,0000.0,0008.32,0003.34,0001.34
2022-03-25 03:35:00,,0826.1,5.01,0.00,28.5,27.7,00.0,37.6,30.2,09.7,0000.0,0008.42,0003.29,0001.33
2022-03-25 03:36:00,,0826.1,4.99,0.00,28.5,27.7,00.0,37.6,30.3,09.7,0000.0,0008.62,0003.26,0001.33
2022-03-25 03:37:00,,0826.1,5.00,0.00,28.5,27.7,00.0,37.6,30.3,09.7,0000.0,0008.80,0003.30,0001.33
2022-03-25 03:38:00,,0826.1,5.00,0.00,28.5,27.7,00.0,37.6,30.3,09.7,0000.0,0008.89,0003.34,0001.33
2022-03-25 03:39:00,,0826.1,5.01,0.00,28.5,27.7,00.0,37.6,30.3,09.7,0000.0,0008.82,0003.32,0001.35
2022-03-25 03:40:00,,0826.1,4.99,0.00,28.5,27.7,00.0,37.6,30.3,09.7,0000.0,0008.76,0003.28,0001.34
2022-03-25 03:41:00,,0826.1,5.02,0.00,28.6,27.7,00.0,37.6,30.3,09.7,0000.0,0009.04,0003.28,0001.34
2022-03-25 03:42:00,,0826.1,4.99,0.00,28.5,27.7,00.0,37.6,30.3,09.7,0000.0,0009.13,0003.30,0001.35
2022-03-25 03:43:00,,0826.1,4.99,0.00,28.5,27.8,00.0,37.6,30.3,09.7,0000.0,0009.19,0003.36,0001.35
2022-03-25 03:44:00,,0826.1,5.01,0.00,28.6,27.8,00.0,37.6,30.4,09.7,0000.0,0009.62,0003.31,0001.33
2022-03-25 03:45:00,,0826.1,5.01,0.00,28.6,27.8,00.0,37.6,30.4,09.7,0000.0,0009.56,0003.26,0001.33
2022-03-25 03:46:00,,0826.1,5.00,0.00,28.6,27.8,00.0,37.6,30.4,09.7,0000.0,0009.47,0003.26,0001.33
2022-03-25 03:47:00,,0826.1,5.00,0.00,28.6,27.8,00.0,37.6,30.3,09.7,0000.0,0009.26,0003.24,0001.32
2022-03-25 03:48:00,,0826.1,5.00,0.00,28.6,27.8,00.0,37.6,30.3,09.8,0000.0,0009.41,0003.21,0001.30
2022-03-25 03:49:00,,0826.1,5.01,0.00,28.5,27.7,00.0,37.6,30.2,09.8,0000.0,0009.45,0003.19,0001.29
2022-03-25 03:50:00,,0826.1,5.00,0.00,28.5,27.6,00.0,37.5,30.2,09.8,0000.0,0009.39,0003.15,0001.27
2022-03-25 03:51:00,,0826.1,4.99,0.00,28.5,27.6,00.0,37.5,30.1,09.8,0000.0,0009.25,0003.12,0001.27
2022-03-25 03:52:00,,0826.1,4.99,0.00,28.4,27.6,00.0,37.5,30.1,09.8,0000.0,0009.03,0003.13,0001.26
2022-03-25 03:53:00,,0826.1,5.02,0.00,28.4,27.6,00.0,37.5,30.1,09.9,0000.0,0008.88,0003.09,0001.26
2022-03-25 03:54:00,,0826.1,4.99,0.00,28.4,27.5,00.0,37.5,30.1,09.9,0000.0,0009.14,0003.04,0001.26
2022-03-25 03:55:00,,0826.1,4.99,0.00,28.3,27.5,00.0,37.5,30.0,10.0,0000.0,0008.64,0003.06,0001.26
2022-03-25 03:56:00,,0826.1,5.02,0.00,28.3,27.5,00.0,37.5,30.0,10.0,0000.0,0008.32,0003.03,0001.26
2022-03-25 03:57:00,,0826.1,4.99,0.00,28.3,27.4,00.0,37.4,30.0,10.0,0000.0,0008.26,0003.03,0001.26
2022-03-25 03:58:00,,0826.1,5.01,0.00,28.3,27.4,00.0,37.4,29.9,10.0,0000.0,0008.11,0003.07,0001.27
2022-03-25 03:59:00,,0826.0,5.00,0.00,28.2,27.3,00.0,37.4,29.9,09.9,0000.0,0007.77,0003.06,0001.28
